Beach, ND

1:27 PM MDT on July 24, 2017 (GMT -0600)
Beach

Weather History for K20U - April, 2013

Change the Weather History Date:

Thursday, April 4, 2013

  Actual Average (KGDV) Record (KGDV)
Temperature  
Mean Temperature 32 °F -  
Max Temperature 41 °F 47 °F 73 °F (2004)
Min Temperature 23 °F 25 °F 10 °F (2007)
Degree Days  
Heating Degree Days 33    
Moisture  
Dew Point 27 °F    
Average Humidity 83    
Maximum Humidity 100    
Minimum Humidity 65    
Precipitation  
Precipitation 1.10 in - - ()
Sea Level Pressure  
Sea Level Pressure 30.14 in    
Wind  
Wind Speed 6 mph (ESE)    
Max Wind Speed 16 mph    
Max Gust Speed 20 mph    
Visibility 9 miles    
Events Rain , Snow    
Averages and records for this station are not official NWS values.
T = Trace of Precipitation, MM = Missing Value Source: NWS Daily Summary

Daily Weather History Graph

Daily Weather History Graph

Search for Another Location

Airport or City:

Trip Planner

Search our weather history database for the weather conditions in past years. The results will help you decide how hot, cold, wet, or windy it might be!

Date:

Astronomy

Apr. 04, 2013 Rise Set
Actual Time 6:28 AM MDT 7:29 PM MDT
Civil Twilight 5:57 AM MDT 8:00 PM MDT
Nautical Twilight 5:20 AM MDT 8:38 PM MDT
Astronomical Twilight 4:41 AM MDT 9:17 PM MDT
Moon 3:18 AM MDT (4/4) 1:30 PM MDT (4/4)
Length of Visible Light 14h 03m
Length of Day
13h 01m
Waning Crescent, 33% of the Moon is Illuminated
Apr 4
Waning Crescent
Apr 10
New
Apr 18
First Quarter
Apr 25
Full
May 2
Last Quarter

Hourly Weather History & Observations

Time (MDT) Temp. Windchill Dew Point Humidity Pressure Visibility Wind Dir Wind Speed Gust Speed Precip Events Conditions
12:15 AM 24.8 °F - 21.2 °F 86% 30.15 in 10.0 mi Calm Calm - N/A   Scattered Clouds
12:35 AM 24.8 °F - 21.2 °F 86% 30.16 in 10.0 mi Calm Calm - N/A   Partly Cloudy
12:55 AM 23.0 °F 18.4 °F 21.2 °F 93% 30.16 in 10.0 mi SSE 3.5 mph - N/A   Mostly Cloudy
1:15 AM 24.8 °F 20.5 °F 23.0 °F 93% 30.17 in 10.0 mi WNW 3.5 mph - N/A   Mostly Cloudy
1:35 AM 24.8 °F - 23.0 °F 93% 30.17 in 10.0 mi Calm Calm - N/A Rain Light Freezing Rain
1:55 AM 24.8 °F 17.9 °F 23.0 °F 93% 30.17 in 10.0 mi NNW 5.8 mph - N/A   Overcast
2:15 AM 26.6 °F 21.2 °F 24.8 °F 93% 30.17 in 10.0 mi North 4.6 mph - N/A   Overcast
2:35 AM 26.6 °F 21.2 °F 24.8 °F 93% 30.18 in 10.0 mi NW 4.6 mph - N/A   Overcast
2:55 AM 26.6 °F 22.6 °F 24.8 °F 93% 30.19 in 10.0 mi NNW 3.5 mph - N/A   Overcast
3:15 AM 28.4 °F - 24.8 °F 86% 30.18 in 10.0 mi Calm Calm - N/A   Overcast
3:35 AM 28.4 °F 24.6 °F 24.8 °F 86% 30.19 in 10.0 mi North 3.5 mph - N/A   Overcast
3:55 AM 28.4 °F 23.3 °F 24.8 °F 86% 30.19 in 10.0 mi North 4.6 mph - N/A   Overcast
4:15 AM 28.4 °F 23.3 °F 24.8 °F 86% 30.20 in 10.0 mi NNE 4.6 mph - N/A   Overcast
4:35 AM 28.4 °F 21.2 °F 24.8 °F 86% 30.19 in 10.0 mi NE 6.9 mph - N/A   Overcast
4:55 AM 28.4 °F 22.2 °F 24.8 °F 86% 30.19 in 10.0 mi North 5.8 mph - N/A   Overcast
5:15 AM 28.4 °F 24.6 °F 26.6 °F 93% 30.20 in 10.0 mi North 3.5 mph - N/A   Overcast
5:35 AM 28.4 °F 22.2 °F 24.8 °F 86% 30.22 in 10.0 mi NNW 5.8 mph - N/A   Overcast
5:55 AM 28.4 °F 22.2 °F 24.8 °F 86% 30.22 in 10.0 mi North 5.8 mph - N/A   Overcast
6:15 AM 28.4 °F 22.2 °F 24.8 °F 86% 30.22 in 10.0 mi NNE 5.8 mph - N/A Rain Light Freezing Rain
6:35 AM 28.4 °F 22.2 °F 24.8 °F 86% 30.22 in 2.5 mi North 5.8 mph - 0.03 in Snow Light Snow
6:55 AM 26.6 °F 22.6 °F 24.8 °F 93% 30.21 in 5.0 mi NE 3.5 mph - 0.05 in Snow Light Snow
7:15 AM 26.6 °F 22.6 °F 24.8 °F 93% 30.21 in 2.0 mi NE 3.5 mph - 0.02 in Snow Light Snow
7:35 AM 26.6 °F 20.0 °F 26.6 °F 100% 30.21 in 0.2 mi ENE 5.8 mph - 0.64 in Snow Heavy Snow
7:55 AM 26.6 °F 20.0 °F 26.6 °F 100% 30.21 in 1.2 mi East 5.8 mph - 0.90 in Snow Light Snow
8:15 AM 26.6 °F 20.0 °F 26.6 °F 100% 30.21 in 1.5 mi ESE 5.8 mph - 0.03 in Snow Light Snow
8:35 AM 26.6 °F 19.1 °F 26.6 °F 100% 30.20 in 2.0 mi East 6.9 mph - 0.10 in Snow Light Snow
8:55 AM 28.4 °F 19.7 °F 26.6 °F 93% 30.19 in 2.5 mi ENE 9.2 mph - 0.14 in Snow Light Snow
9:15 AM 28.4 °F 21.2 °F 24.8 °F 86% 30.20 in 10.0 mi ESE 6.9 mph - N/A   Overcast
9:35 AM 28.4 °F 20.4 °F 24.8 °F 86% 30.19 in 9.0 mi ESE 8.1 mph - N/A Snow Light Snow
9:55 AM 28.4 °F 20.4 °F 26.6 °F 93% 30.20 in 10.0 mi ESE 8.1 mph - N/A Snow Light Snow
10:35 AM 30.2 °F 21.9 °F 26.6 °F 86% 30.20 in 7.0 mi ESE 9.2 mph - N/A Rain Light Freezing Rain
10:55 AM 30.2 °F 21.9 °F 26.6 °F 86% 30.20 in 10.0 mi ESE 9.2 mph - N/A Rain Light Freezing Rain
11:15 AM 30.2 °F 21.9 °F 26.6 °F 86% 30.21 in 10.0 mi ESE 9.2 mph - N/A   Overcast
11:35 AM 32.0 °F 24.8 °F 26.6 °F 80% 30.20 in 7.0 mi ESE 8.1 mph - N/A Rain Light Rain
11:55 AM 32.0 °F 24.8 °F 28.4 °F 87% 30.20 in 2.5 mi SE 8.1 mph - 0.01 in Snow Light Snow
12:15 PM 32.0 °F 23.0 °F 28.4 °F 87% 30.19 in 3.0 mi SE 11.5 mph - N/A Snow Light Snow
12:35 PM 32.0 °F 23.6 °F 28.4 °F 87% 30.19 in 7.0 mi SSE 10.4 mph - N/A Snow Light Snow
12:55 PM 32.0 °F 23.0 °F 28.4 °F 87% 30.18 in 10.0 mi SSE 11.5 mph - N/A Snow Light Snow
1:15 PM 32.0 °F 25.6 °F 28.4 °F 87% 30.18 in 10.0 mi SSE 6.9 mph - N/A   Overcast
1:35 PM 32.0 °F 23.6 °F 28.4 °F 87% 30.17 in 10.0 mi SE 10.4 mph - N/A   Overcast
1:55 PM 33.8 °F 25.8 °F 30.2 °F 87% 30.16 in 10.0 mi SE 10.4 mph - N/A   Overcast
2:15 PM 35.6 °F 28.6 °F 30.2 °F 81% 30.15 in 10.0 mi ESE 9.2 mph - N/A   Overcast
2:35 PM 35.6 °F 28.0 °F 32.0 °F 87% 30.15 in 10.0 mi SSE 10.4 mph - N/A   Overcast
2:55 PM 35.6 °F 27.5 °F 32.0 °F 87% 30.14 in 10.0 mi SE 11.5 mph - N/A   Overcast
3:15 PM 37.4 °F 30.8 °F 32.0 °F 81% 30.14 in 10.0 mi ESE 9.2 mph - N/A   Overcast
3:35 PM 37.4 °F 29.8 °F 32.0 °F 81% 30.13 in 10.0 mi ESE 11.5 mph 16.1 mph N/A   Mostly Cloudy
3:55 PM 39.2 °F 31.2 °F 32.0 °F 75% 30.12 in 10.0 mi SE 13.8 mph - N/A   Mostly Cloudy
4:15 PM 41.0 °F 34.3 °F 32.0 °F 70% 30.11 in 10.0 mi SE 11.5 mph - N/A   Partly Cloudy
4:35 PM 41.0 °F 33.5 °F 32.0 °F 70% 30.10 in 10.0 mi SE 13.8 mph - N/A   Mostly Cloudy
4:55 PM 41.0 °F 34.3 °F 32.0 °F 70% 30.10 in 10.0 mi SSE 11.5 mph - N/A   Overcast
5:15 PM 41.0 °F 33.5 °F 32.0 °F 70% 30.09 in 10.0 mi ESE 13.8 mph - N/A   Overcast
5:35 PM 41.0 °F 32.8 °F 32.0 °F 70% 30.08 in 10.0 mi ESE 16.1 mph - N/A   Mostly Cloudy
5:55 PM 41.0 °F 33.5 °F 30.2 °F 65% 30.08 in 10.0 mi ESE 13.8 mph 18.4 mph N/A   Mostly Cloudy
6:15 PM 41.0 °F 33.5 °F 30.2 °F 65% 30.08 in 10.0 mi ESE 13.8 mph - N/A   Clear
6:35 PM 39.2 °F 31.6 °F 30.2 °F 70% 30.07 in 10.0 mi ESE 12.7 mph - N/A   Clear
6:55 PM 39.2 °F 31.6 °F 28.4 °F 65% 30.06 in 10.0 mi ESE 12.7 mph - N/A   Clear
7:15 PM 37.4 °F 29.8 °F 28.4 °F 70% 30.06 in 10.0 mi ESE 11.5 mph - N/A   Partly Cloudy
7:35 PM 35.6 °F 27.5 °F 28.4 °F 75% 30.05 in 10.0 mi ESE 11.5 mph - N/A   Partly Cloudy
7:55 PM 35.6 °F 27.1 °F 28.4 °F 75% 30.04 in 10.0 mi ESE 12.7 mph 18.4 mph N/A   Clear
8:15 PM 33.8 °F 25.3 °F 28.4 °F 81% 30.04 in 10.0 mi ESE 11.5 mph - N/A   Partly Cloudy
8:35 PM 33.8 °F 25.8 °F 28.4 °F 81% 30.03 in 10.0 mi ESE 10.4 mph - N/A   Clear
8:55 PM 35.6 °F 25.9 °F 28.4 °F 75% 30.02 in 10.0 mi ESE 16.1 mph - N/A   Clear
9:15 PM 33.8 °F 24.3 °F 28.4 °F 81% 30.02 in 10.0 mi ESE 13.8 mph 19.6 mph N/A   Clear
9:35 PM 33.8 °F 24.8 °F 26.6 °F 75% 30.02 in 10.0 mi SE 12.7 mph - N/A   Clear
9:55 PM 33.8 °F 24.3 °F 26.6 °F 75% 30.01 in 10.0 mi ESE 13.8 mph - N/A   Clear
10:15 PM 33.8 °F 23.5 °F 26.6 °F 75% 30.01 in 10.0 mi SE 16.1 mph - N/A   Clear
10:35 PM 33.8 °F 24.8 °F 28.4 °F 81% 30.00 in 10.0 mi ESE 12.7 mph - N/A   Partly Cloudy
10:55 PM 33.8 °F 24.3 °F 28.4 °F 81% 29.99 in 10.0 mi SE 13.8 mph - N/A   Mostly Cloudy
11:15 PM 33.8 °F 23.9 °F 26.6 °F 75% 29.99 in 10.0 mi ESE 15.0 mph - N/A   Scattered Clouds
11:35 PM 33.8 °F 25.3 °F 26.6 °F 75% 29.98 in 10.0 mi SE 11.5 mph - N/A   Scattered Clouds
11:55 PM 33.8 °F 23.9 °F 26.6 °F 75% 29.97 in 10.0 mi SE 15.0 mph 19.6 mph N/A   Scattered Clouds